Location: *
(55.5817°S, 142.4781°W)
Time: 06:17:29
(UTC+00:00)

Cosmos 1666 Rocket - Pass Details

Date: 29 April 2025
Orbit: 597 x 627 km, 82.5° (Epoch: 23 May)

Event Time Altitude Azimuth Distance (km) Brightness Sun altitude
Exits shadow 14:39:06 31° 228° (SW) 1,130 4.5 -18.8°
Drops below altitude 10° 14:42:29 10° 182° (S) 2,046 6.2 -18.4°
Sets 14:44:57 0° 172° (S) 2,963 7.2 -18.0°
